sat.trackr.live / text

‹ back to catalog

RISAT-2BR1

NORAD 44857 · 2019-089F

PAYLOAD ACTIVE UNKNOWN

§ Identity

Operator
Country
IND
Launch date
2019-12-11
Launch site
SRILR
Launch vehicle
Mass (kg)
RCS (m²)

External: N2YO · Heavens-Above · Gunter

§ Orbital elements

Epoch: 2026-05-25T00:19:11.995392Z

Period
95.90 min
Inclination
36.9599°
Eccentricity
0.0012402
Mean motion
15.01527890 rev/d
Perigee alt
553.6 km
Apogee alt
570.8 km
Semi-major
6,940.3 km
B*
1.9104e-4
RAAN
249.1220°
Arg perigee
340.1078°
Mean anomaly
19.9179°
Rev number
35,371

§ Raw data

RISAT-2BR11 44857U 19089F   26145.01333328  .00002444  00000+0  19104-3 0  99972 44857  36.9599 249.1220 0012402 340.1078  19.9179 15.01527890353716

JSON: /api/v1/satellites/44857 · /tle

For live sub-satellite position, see the globe view (requires WebGL).

§ Visibility from observer

Set your observer location to see the next 7 days of passes ≥ 10°. The values pass through the URL so the page stays shareable.

No JS? Fill the form by hand. The geolocation button needs JavaScript.